Aduy, Russia

11:39 AM +05 on May 23, 2017 (GMT +0500)
Aduy

Weather History for 28440 - April, 2014

Change the Weather History Date:

Monday, April 7, 2014

  Actual Average Record
Temperature  
Mean Temperature 34 °F -  
Max Temperature 40 °F - - ()
Min Temperature 27 °F - - ()
Degree Days  
Heating Degree Days 32    
Moisture  
Dew Point 25 °F    
Average Humidity 75    
Maximum Humidity 100    
Minimum Humidity 24    
Precipitation  
Precipitation 0.00 in 0.04 in - ()
Sea Level Pressure  
Sea Level Pressure 29.48 in    
Wind  
Wind Speed 9 mph ()    
Max Wind Speed 20 mph    
Max Gust Speed 31 mph    
Visibility 5.4 miles    
Events Fog , Snow    
T = Trace of Precipitation, MM = Missing Value Source: Averaged Metar Reports

Daily Weather History Graph

Daily Weather History Graph

Search for Another Location

Airport or City:

Trip Planner

Search our weather history database for the weather conditions in past years. The results will help you decide how hot, cold, wet, or windy it might be!

Date:

Astronomy

Apr. 07, 2014 Rise Set
Actual Time 7:11 AM +06 8:48 PM +06
Civil Twilight 6:32 AM +06 9:28 PM +06
Nautical Twilight 5:42 AM +06 10:18 PM +06
Astronomical Twilight 4:46 AM +06 11:16 PM +06
Moon 12:10 PM +06 (4/7) 3:44 AM +06 (4/7)
Length of Visible Light 14h 56m
Length of Day
13h 36m
Waxing Crescent, 49% of the Moon is Illuminated
Apr 7
Waxing Crescent
Apr 7
First Quarter
Apr 15
Full
Apr 22
Last Quarter
Apr 29
New

Hourly Weather History & Observations

Time (+06) Temp. Windchill Dew Point Humidity Pressure Visibility Wind Dir Wind Speed Gust Speed Precip Events Conditions
12:00 AM 31 °F - 30 °F 95% 29.57 in 2 mi South 2.2 mph - - Snow Light Snow
12:00 AM 30.2 °F - 30.2 °F 100% 29.53 in 0.9 mi Calm Calm - N/A Snow Snow Showers
12:30 AM 30.2 °F - 30.2 °F 100% 29.53 in 1.2 mi SSE 2.2 mph - N/A Snow Snow
1:00 AM 30.2 °F 25.5 °F 30.2 °F 100% 29.50 in 1.4 mi SE 4.5 mph - N/A Snow Light Snow
1:30 AM 30.2 °F 25.5 °F 30.2 °F 100% 29.50 in - SSE 4.5 mph - N/A   Overcast
2:00 AM 30.2 °F - 28.4 °F 93% 29.50 in - WSW 2.2 mph - N/A   Mostly Cloudy
2:30 AM 28.4 °F - 28.4 °F 100% 29.50 in 0.1 mi WSW 2.2 mph - N/A Fog Light Freezing Fog
3:00 AM 30 °F - 29 °F 92%  in 6 mi WNW 6.7 mph - -   Partly Cloudy
3:00 AM 26.6 °F 21.3 °F 26.6 °F 100% 29.47 in 1.2 mi West 4.5 mph - N/A Fog Mostly Cloudy
3:30 AM 24.8 °F 17.1 °F 24.8 °F 100% 29.47 in 4.3 mi West 6.7 mph - N/A   Mostly Cloudy
4:00 AM 24.8 °F 17.1 °F 24.8 °F 100% 29.47 in - West 6.7 mph - N/A   Clear
4:30 AM 28.4 °F 21.4 °F 28.4 °F 100% 29.47 in 4.3 mi West 6.7 mph - N/A Snow Light Snow Showers
5:00 AM 30.2 °F 22.1 °F 30.2 °F 100% 29.47 in 4.3 mi West 8.9 mph - N/A Snow Light Snow Showers
5:30 AM 30.2 °F 22.1 °F 30.2 °F 100% 29.47 in 4.3 mi WNW 8.9 mph - N/A Snow Light Snow Showers
6:00 AM 30 °F - 25 °F 73% 29.53 in 6 mi WNW 8.9 mph - -   Partly Cloudy
6:00 AM 30.2 °F 20.9 °F 28.4 °F 93% 29.47 in 6.2 mi West 11.2 mph - N/A Snow Light Snow Showers
6:30 AM 30.2 °F 19.9 °F 26.6 °F 86% 29.47 in 6.2 mi West 13.4 mph - N/A   Mostly Cloudy
7:00 AM 30.2 °F 19.9 °F 26.6 °F 86% 29.47 in 6.2 mi West 13.4 mph - N/A   Mostly Cloudy
7:30 AM 28.4 °F 18.7 °F 26.6 °F 93% 29.47 in 6.2 mi West 11.2 mph - N/A   Mostly Cloudy
8:00 AM 28.4 °F 18.7 °F 24.8 °F 86% 29.47 in 6.2 mi West 11.2 mph - N/A   Scattered Clouds
8:30 AM 28.4 °F 18.7 °F 24.8 °F 86% 29.47 in 6.2 mi West 11.2 mph - N/A   Scattered Clouds
9:00 AM 28 °F - 23 °F 72% 29.54 in 31 mi WNW 11.2 mph - -   Scattered Clouds
9:00 AM 30.2 °F 18.3 °F 24.8 °F 80% 29.47 in 6.2 mi WNW 17.9 mph - N/A Snow Light Snow Showers
9:30 AM 30.2 °F 17.6 °F 24.8 °F 80% 29.47 in 6.2 mi WNW 20.1 mph - N/A   Mostly Cloudy
10:00 AM 30.2 °F 18.3 °F 24.8 °F 80% 29.47 in 6.2 mi West 17.9 mph - N/A   Mostly Cloudy
10:30 AM 30.2 °F 17.6 °F 23.0 °F 75% 29.47 in 6.2 mi WNW 20.1 mph - N/A   Overcast
11:00 AM 32.0 °F 20.6 °F 23.0 °F 69% 29.47 in 6.2 mi WNW 17.9 mph - N/A   Mostly Cloudy
11:30 AM 32.0 °F 21.4 °F 23.0 °F 69% 29.47 in 6.2 mi WNW 15.7 mph - N/A   Mostly Cloudy
12:00 PM 33 °F - 18 °F 42% 29.53 in 31 mi WNW 13.4 mph - -   Mostly Cloudy
12:00 PM 32.0 °F 20.6 °F 21.2 °F 64% 29.50 in 6.2 mi WNW 17.9 mph - N/A   Mostly Cloudy
12:30 PM 33.8 °F 23.0 °F 23.0 °F 65% 29.50 in 6.2 mi West 17.9 mph 29.1 mph N/A   Mostly Cloudy
1:00 PM 33.8 °F 23.0 °F 23.0 °F 65% 29.50 in 6.2 mi West 17.9 mph - N/A   Mostly Cloudy
1:30 PM 35.6 °F 26.0 °F 23.0 °F 60% 29.47 in 6.2 mi West 15.7 mph - N/A   Mostly Cloudy
2:00 PM 35.6 °F 25.3 °F 24.8 °F 65% 29.47 in 6.2 mi West 17.9 mph 29.1 mph N/A Snow Light Snow Showers
2:30 PM 33.8 °F 24.5 °F 28.4 °F 81% 29.47 in 6.2 mi West 13.4 mph - N/A   Mostly Cloudy
3:00 PM 36 °F - 19 °F 37% 29.51 in 31 mi West 13.4 mph - - Snow Light Snow Showers
3:00 PM 35.6 °F 26.0 °F 24.8 °F 65% 29.47 in 3.1 mi WNW 15.7 mph - N/A Snow Light Snow Showers
3:30 PM 37.4 °F 27.6 °F 23.0 °F 56% 29.47 in 6.2 mi West 17.9 mph - N/A   Mostly Cloudy
4:00 PM 37.4 °F 27.0 °F 23.0 °F 56% 29.47 in 6.2 mi West 20.1 mph 31.3 mph N/A   Mostly Cloudy
4:30 PM 39.2 °F 30.0 °F 21.2 °F 49% 29.47 in - West 17.9 mph 29.1 mph N/A   Clear
5:00 PM 39.2 °F 30.0 °F 21.2 °F 49% 29.47 in - West 17.9 mph - N/A   Clear
5:30 PM 41.0 °F 34.4 °F 21.2 °F 45% 29.47 in - West 11.2 mph - N/A   Clear
6:00 PM 40 °F - 16 °F 24% 29.48 in 31 mi West 11.2 mph - -   Partly Cloudy
6:00 PM 41.0 °F 32.3 °F 21.2 °F 45% 29.44 in - West 17.9 mph - N/A   Clear
6:30 PM 41.0 °F 32.9 °F 21.2 °F 45% 29.44 in - West 15.7 mph - N/A   Clear
7:00 PM 41.0 °F 33.6 °F 21.2 °F 45% 29.44 in - West 13.4 mph - N/A   Clear
7:30 PM 37.4 °F 29.1 °F 24.8 °F 60% 29.44 in 6.2 mi WSW 13.4 mph - N/A   Overcast
8:00 PM 37.4 °F 29.1 °F 26.6 °F 65% 29.47 in 6.2 mi WSW 13.4 mph 24.6 mph N/A   Overcast
8:30 PM 35.6 °F 27.7 °F 26.6 °F 70% 29.47 in 6.2 mi WSW 11.2 mph - N/A   Overcast
9:00 PM 34 °F - 24 °F 57% 29.50 in 12 mi WSW 4.5 mph - -   Light Ice Pellets
9:00 PM 35.6 °F 30.0 °F 26.6 °F 70% 29.47 in 6.2 mi SW 6.7 mph - N/A   Overcast
9:30 PM 33.8 °F 29.7 °F 28.4 °F 81% 29.47 in 6.2 mi South 4.5 mph - N/A   Overcast
10:00 PM 33.8 °F 26.5 °F 28.4 °F 81% 29.47 in 6.2 mi SW 8.9 mph - N/A Snow Light Snow Showers
10:30 PM 33.8 °F 26.5 °F 30.2 °F 87% 29.47 in 6.2 mi SSW 8.9 mph - N/A Snow Light Snow Showers
11:00 PM 33.8 °F 27.9 °F 30.2 °F 87% 29.44 in 6.2 mi South 6.7 mph - N/A Snow Light Snow Showers
11:30 PM 33.8 °F 25.4 °F 30.2 °F 87% 29.44 in 6.2 mi SSW 11.2 mph - N/A Snow Light Snow Showers